GOES 1 (SMS-C) 1 08366U 75100A 12034.80171199 -.00000232 00000-0 10000-3 0 8982 2 08366 014.0289 339.5226 0001360 011.2932 348.7562 01.00289454132595 GOES 2 1 10061U 77048A 12030.26382522 -.00000302 00000-0 10000-3 0 508 2 10061 014.6843 348.0767 0013941 283.1028 076.7669 00.99398656 71311 GOES 3 1 10953U 78062A 12034.89724653 -.00000108 00000-0 10000-3 0 7133 2 10953 014.5624 351.6979 0005128 042.1643 317.9129 01.00265465 76316 GOES 6 1 14050U 83041A 12034.86748874 -.00000263 00000-0 10000-3 0 1996 2 14050 014.3280 010.5382 0004020 032.6467 327.4182 01.00280369163458 GOES 7 1 17561U 87022A 12034.49805236 +.00000095 +00000-0 +10000-3 0 03392 2 17561 013.6913 027.2513 0005468 055.8228 061.2886 01.00307772074557 GOES 8 1 23051U 94022A 12035.02206086 -.00000062 00000-0 10000-3 0 76 2 23051 008.0267 060.7624 0005951 217.2628 142.7779 00.98903809 72236 GOES 9 1 23581U 95025A 12034.29813881 -.00000183 00000-0 10000-3 0 2833 2 23581 007.5690 058.9552 0005711 339.2070 020.8484 00.98802699 60924 GOES 10 1 24786U 97019A 12034.45460630 -.00000249 +00000-0 +10000-3 0 02163 2 24786 005.7939 062.0716 0007182 121.0553 239.0988 00.99101307054052 GOES 11 1 26352U 00022A 12028.55393675 .00000012 00000-0 00000+0 0 6751 2 26352 000.9737 138.5801 0001710 342.5316 238.8776 00.99042364 42986 GOES 12 1 26871U 01031A 12035.10811289 -.00000283 00000-0 10000-3 0 4386 2 26871 001.9576 074.4691 0001626 278.8763 119.0072 01.00284775 38657 GOES 13 1 29155U 06018A 12035.21849685 -.00000249 00000-0 10000-3 0 9362 2 29155 000.4099 080.7921 0001871 317.0934 100.0045 01.00270274 20901 GOES 14 1 35491U 09033A 12035.32605329 -.00000084 00000-0 00000+0 0 3174 2 35491 000.0979 248.2526 0003213 191.9772 065.5583 01.00271849 9578 GOES 15 1 36411U 10008A 12033.13629844 .00000092 00000-0 00000+0 0 9248 2 36411 000.0404 257.0515 0000946 318.2374 190.6630 01.00261324 7053